RH
6 6 6 5 6 6 6 6 6 7 6 7 6 6 6 5 7 14 21 24 22 20 19 17 16 15 14 13 13 12 12 11 10 9 7 5 5 3 4 3 3 3 2 3 3 4 6 9 15 22 28 30 30 28 26 23 19 17 14 13 11 11 13 16 15 25 48 41 41 58 56 72 82 81 82 73 73 73 69 65 55 51 48 48 46 47 49 44
6 6 6 6 6 6 6 6 7 7 7 7 6 6 6 5 7 13 22 25 22 20 17 14 11 9 9 8 7 7 6 6 5 4 4 3 4 3 3 3 2 3 2 2 2 2 3 6 11 17 27 32 33 32 30 27 23 20 16 15 12 11 13 13 14 20 33 38 45 58 63 73 78 78 78 72 72 70 66 61 54 51 48 45 47 49 46 40
6 6 6 6 6 6 6 7 7 7 7 7 7 7 6 6 6 11 22 26 23 20 17 12 9 7 6 6 4 5 4 4 4 3 3 3 3 3 2 3 2 2 2 2 2 2 3 4 7 13 24 33 36 36 34 32 27 24 19 17 14 11 13 11 12 16 26 48 59 62 66 71 79 82 80 78 74 70 66 60 54 51 46 44 45 46 40 35
7 7 7 7 7 6 7 7 7 7 7 8 7 7 6 6 6 8 20 27 24 21 18 12 9 8 6 5 4 4 4 3 3 3 3 3 2 3 2 2 2 2 2 2 2 2 3 2 4 10 20 30 37 41 40 37 32 29 24 20 17 13 15 13 14 16 21 43 60 63 66 73 83 84 79 76 72 71 66 58 55 50 44 41 41 41 36 34
7 7 7 7 7 7 7 7 7 7 8 8 7 8 6 6 6 7 15 26 27 22 20 14 10 9 6 6 4 3 3 3 3 3 3 3 2 2 2 2 2 2 2 2 3 2 3 3 4 7 14 26 38 45 45 42 38 34 29 25 20 16 15 14 14 21 24 34 53 64 69 79 86 84 80 75 71 69 61 55 54 48 41 38 35 34 33 35
7 7 7 7 8 7 7 7 7 8 8 8 8 8 7 6 7 6 10 22 28 25 22 17 11 9 7 6 4 4 3 3 3 3 3 2 3 3 2 3 2 2 3 3 4 3 4 3 4 7 12 26 40 50 51 48 43 39 36 30 25 20 16 15 14 21 29 38 54 66 69 76 81 81 78 73 68 62 56 55 53 47 41 37 31 28 33 36
8 8 8 8 8 7 8 7 7 8 8 8 8 8 8 7 7 6 8 17 27 28 24 20 14 10 8 6 5 4 4 4 4 3 3 3 3 3 2 3 3 4 4 4 5 5 5 5 6 8 14 29 42 51 55 53 50 45 41 36 31 25 18 16 18 21 34 50 62 67 67 69 73 75 75 70 65 60 57 55 50 48 45 37 29 26 32 33
8 8 8 8 9 8 8 8 8 8 8 9 8 8 8 7 7 7 7 14 26 30 27 22 16 11 9 7 5 5 5 4 4 3 3 3 2 3 3 4 4 5 5 5 5 5 7 7 7 9 16 28 37 47 58 58 55 51 46 42 35 28 22 19 22 29 44 65 73 73 72 72 74 74 74 71 68 65 60 55 51 51 45 35 29 27 28 29
9 8 9 9 9 9 8 8 8 8 8 9 9 9 8 8 7 6 7 13 24 30 30 25 18 14 10 7 6 6 6 4 4 4 3 3 3 3 3 4 5 6 6 6 6 7 8 9 10 11 17 26 32 45 58 58 57 57 52 48 41 32 26 24 33 48 69 84 81 78 79 81 82 78 76 74 71 68 62 56 54 50 43 36 33 31 29 27
10 9 10 9 9 10 9 9 8 8 9 8 9 9 9 8 7 6 7 12 23 31 31 28 21 16 11 8 7 6 5 4 4 4 3 3 3 3 4 4 6 6 7 8 8 9 10 12 12 11 18 27 31 44 59 61 59 59 56 53 48 41 33 32 43 59 75 83 77 77 82 84 84 80 77 76 72 70 65 59 55 49 43 40 37 35 32 29
9 9 9 9 10 10 10 10 9 9 9 9 9 9 9 9 7 7 7 11 22 31 33 32 25 18 13 9 8 7 5 5 4 4 4 3 3 3 4 5 7 7 8 9 10 12 13 15 15 14 20 26 32 45 57 63 66 65 62 58 54 51 44 41 49 60 69 79 81 81 83 81 82 81 78 77 74 71 67 60 55 49 45 43 39 36 34 32
7 8 8 8 9 9 10 10 10 9 9 9 9 9 10 9 8 7 7 11 22 31 35 34 29 22 16 11 9 7 5 5 5 4 4 3 3 3 4 6 7 8 9 10 11 13 16 18 18 17 19 22 32 48 56 62 69 69 66 63 61 60 56 52 56 62 68 79 82 75 79 82 79 82 81 78 75 71 67 62 57 52 49 47 42 38 34 33
7 7 7 7 7 7 8 8 10 10 10 10 9 10 10 9 9 7 7 12 23 34 37 37 34 25 18 13 9 7 6 6 5 4 4 4 3 3 5 8 9 9 10 11 11 14 18 21 21 21 21 23 31 44 55 61 66 70 72 69 67 67 66 65 65 66 68 77 77 71 81 88 82 81 82 81 78 74 71 66 61 56 52 49 43 40 35 33
7 8 8 8 8 7 7 7 8 9 10 10 10 10 10 10 9 8 8 13 25 35 38 40 36 27 20 14 10 8 6 6 5 5 5 4 3 3 6 8 10 11 10 11 13 15 20 23 23 23 23 26 30 38 47 54 61 67 67 65 70 76 74 71 72 72 73 78 78 76 82 87 84 81 81 82 81 78 74 69 63 57 52 49 44 42 40 38
12 13 13 13 12 11 9 7 7 8 10 10 11 11 10 11 9 8 9 14 27 36 39 43 38 29 22 15 11 9 7 7 6 6 6 5 4 3 6 10 10 11 12 14 14 15 21 25 26 27 26 28 34 40 45 50 56 61 69 73 74 79 75 70 73 74 75 80 78 76 80 82 82 81 81 83 81 77 73 68 62 57 54 50 47 45 45 44
16 16 16 16 16 15 13 11 8 7 10 10 11 11 11 11 9 9 10 16 28 36 41 45 42 35 26 18 13 9 8 8 7 7 7 5 4 5 8 10 10 12 14 15 15 18 23 25 24 25 28 31 37 44 49 53 50 54 79 86 69 69 75 69 70 73 75 80 81 80 81 80 79 80 80 80 79 74 70 67 63 60 56 51 50 50 49 48
15 15 15 16 17 18 16 14 11 9 10 11 12 12 12 11 10 10 12 19 29 38 43 46 46 41 29 21 14 10 9 8 8 8 7 5 4 6 10 11 12 13 15 16 16 19 23 25 25 28 30 30 33 44 65 77 63 52 64 63 49 58 74 70 64 70 75 74 77 79 75 74 77 79 80 77 74 70 66 65 62 60 57 52 52 53 52 52
16 16 17 18 18 19 20 18 14 12 12 13 13 13 13 12 11 12 15 22 32 40 44 47 50 43 30 22 16 12 10 9 10 7 7 6 4 8 11 12 12 12 15 17 17 20 24 22 21 28 31 30 32 42 66 80 63 46 47 48 46 51 64 68 58 55 65 67 67 70 68 69 72 72 72 69 66 65 63 60 60 58 55 52 52 54 56 55
19 21 21 22 22 22 23 21 17 14 14 14 15 14 14 13 13 14 18 26 36 41 44 49 52 46 36 27 19 14 12 11 9 9 9 5 6 10 12 14 11 12 17 23 24 21 22 26 33 41 34 25 24 24 34 43 40 40 45 49 51 51 55 60 59 58 63 67 66 66 68 67 69 68 65 63 61 61 60 54 55 56 52 50 50 53 56 54
23 24 26 27 27 26 26 24 20 16 15 16 16 15 14 14 14 17 22 32 41 41 43 50 54 52 45 31 21 16 14 12 9 10 9 6 8 9 14 16 11 14 17 25 28 16 27 51 59 55 33 14 12 13 21 31 38 46 51 54 57 66 70 60 63 74 70 70 72 67 66 66 66 68 64 64 62 55 51 48 48 50 47 46 44 47 53 52
23 25 28 29 30 30 29 27 22 17 16 16 16 16 15 14 16 20 27 38 44 41 42 51 56 55 48 36 27 21 16 13 11 12 10 9 9 9 17 15 15 28 19 18 20 12 44 68 44 31 22 11 12 15 25 34 39 46 52 65 70 75 78 63 65 82 79 82 88 78 76 76 69 66 59 56 57 49 45 45 46 46 42 39 37 40 49 52
22 24 26 29 31 32 30 28 23 18 16 16 16 16 15 16 17 23 35 45 44 41 45 55 59 56 51 44 35 26 19 13 12 13 12 12 10 11 18 14 20 31 16 23 38 38 65 61 21 19 22 12 13 16 26 36 42 50 55 73 87 76 67 63 61 73 80 86 94 91 91 88 72 63 60 56 55 49 46 47 45 43 38 35 34 38 51 56
21 22 23 26 31 31 30 27 22 18 16 17 17 16 17 17 19 31 47 50 42 43 52 59 62 61 59 52 41 31 21 15 15 14 15 16 13 13 19 18 20 18 12 33 63 76 78 46 15 25 22 11 16 18 26 34 40 53 56 67 80 66 58 72 70 65 72 77 82 79 76 76 68 65 68 67 64 57 55 54 48 44 38 32 34 43 58 64
21 21 21 24 29 30 28 25 21 17 15 17 16 17 18 17 25 44 57 49 40 48 58 61 64 65 62 54 45 35 25 22 17 17 24 22 16 17 21 23 21 19 17 17 38 64 53 24 20 25 17 15 19 20 28 37 41 48 54 59 61 51 51 69 69 58 61 66 67 65 72 83 79 76 76 71 72 72 71 73 66 59 48 34 39 58 71 75
21 22 23 25 28 28 25 23 20 16 16 17 16 18 18 18 36 58 61 45 38 51 62 67 71 69 66 60 55 51 43 35 23 23 34 27 17 19 22 27 26 25 22 11 34 60 34 15 23 19 17 19 18 22 27 40 51 48 52 57 47 39 46 55 54 58 71 80 72 66 88 103 85 76 77 73 75 78 82 89 86 79 68 54 57 70 74 78
19 23 25 26 26 24 23 21 18 16 16 16 17 18 17 26 51 67 58 40 40 58 70 78 82 79 75 72 73 73 63 50 37 35 41 32 20 18 21 29 31 31 25 14 33 45 21 14 21 18 22 18 18 27 21 30 54 51 45 52 41 32 46 52 53 72 93 95 75 63 83 96 85 78 78 78 78 72 74 82 83 78 76 79 83 81 74 76
16 20 22 23 23 21 21 19 16 17 16 16 19 18 22 40 62 67 52 38 47 66 78 87 91 86 83 82 85 86 75 64 52 42 41 36 23 17 20 25 31 38 30 22 35 30 9 12 20 19 20 24 40 47 24 22 48 48 35 44 44 31 41 52 58 77 82 68 59 60 63 70 85 86 69 68 72 66 64 65 65 62 60 69 75 75 76 74
14 16 18 19 19 18 17 16 16 17 16 18 19 19 33 55 67 63 49 42 54 72 82 87 87 85 86 89 90 87 82 74 59 45 41 36 22 16 20 20 25 36 30 35 55 39 7 8 16 12 21 48 62 45 22 20 31 31 25 36 41 30 35 43 51 63 55 49 64 67 54 58 85 90 64 54 59 60 62 58 54 51 47 54 58 55 55 51
14 13 14 15 15 15 14 14 16 17 18 19 19 25 45 63 66 58 49 48 60 71 78 82 85 88 88 85 85 85 85 81 68 55 44 33 22 18 21 18 17 25 28 35 49 37 14 12 12 8 23 47 40 20 19 23 19 18 21 26 27 25 30 34 43 48 37 47 68 63 51 59 80 88 71 55 49 49 50 45 42 41 38 45 54 52 46 40
16 14 12 12 13 13 13 14 16 17 19 20 21 32 51 63 64 57 46 46 56 65 73 81 84 87 82 75 77 80 85 89 84 72 52 33 25 20 19 20 14 14 24 34 40 37 25 18 12 8 14 20 15 13 20 21 17 18 22 23 23 26 25 26 35 33 34 55 62 48 45 53 68 83 78 59 47 43 39 37 37 36 32 32 39 45 48 47
16 16 16 14 13 13 13 15 17 18 20 20 22 35 54 64 60 50 39 40 53 64 75 79 76 78 76 70 71 75 83 93 94 86 65 44 34 24 19 22 19 14 22 30 35 37 31 26 21 13 11 12 12 13 12 14 19 22 26 28 41 53 39 34 39 26 38 69 60 40 41 47 64 82 75 56 46 41 37 37 35 29 24 23 25 29 35 40
13 16 18 18 17 16 15 16 18 19 20 21 22 32 55 65 55 44 37 40 53 64 72 74 71 71 71 69 67 69 80 91 95 93 81 64 50 34 25 24 19 23 37 37 32 38 39 33 25 15 15 14 14 18 17 16 14 18 30 33 45 66 55 50 60 43 44 66 54 37 40 44 58 67 54 41 39 37 36 36 31 21 14 13 16 18 20 25
14 13 15 19 21 22 22 21 21 23 23 23 24 31 52 63 51 40 38 42 51 59 66 72 73 71 69 69 66 64 75 84 87 89 84 74 59 39 30 26 17 22 37 33 27 39 47 43 33 22 17 15 18 29 37 38 26 19 36 43 45 63 56 41 53 53 49 56 46 35 38 46 60 61 42 33 35 36 37 38 30 19 13 12 12 12 12 14
20 15 12 14 19 22 25 27 28 30 30 31 32 35 50 59 50 40 41 46 50 53 61 70 73 72 68 67 63 61 70 78 79 81 76 68 58 44 33 28 22 19 21 23 27 34 40 48 48 33 21 16 17 25 34 38 31 18 27 39 40 52 51 38 49 62 58 51 39 31 35 46 62 64 46 36 39 38 39 41 35 24 22 24 22 18 16 16
22 21 15 13 14 16 20 26 29 32 35 37 39 40 48 57 52 46 48 51 49 48 54 63 70 73 69 64 60 58 63 68 72 79 80 73 66 58 44 30 24 20 18 26 31 25 24 35 39 31 26 20 12 17 22 23 32 33 25 26 35 44 46 41 46 48 39 36 33 28 30 35 44 48 40 38 43 42 42 43 38 34 33 34 35 32 29 26
20 22 21 18 16 13 14 18 23 30 37 42 44 43 48 55 54 52 53 54 51 45 46 56 65 68 65 62 59 56 57 59 63 71 81 83 75 66 55 40 30 26 23 26 29 27 31 35 28 21 25 24 14 13 14 17 35 45 32 31 40 40 35 34 36 34 27 28 29 26 26 28 32 35 33 33 39 39 39 41 39 38 37 35 36 36 35 33
16 20 22 23 22 19 14 13 16 23 34 42 44 44 48 53 55 55 56 56 53 46 42 48 57 58 56 57 57 54 51 52 55 60 71 82 82 73 66 58 51 47 39 31 30 31 33 36 28 17 18 23 22 19 14 12 17 23 29 38 36 27 31 36 32 30 29 27 28 27 27 27 30 39 37 29 31 33 33 36 37 35 33 33 33 32 32 33
16 17 19 21 23 24 20 15 13 16 26 37 42 43 46 51 53 54 56 56 55 51 44 43 48 51 50 50 52 49 46 47 49 51 55 68 79 80 76 72 67 64 55 47 49 50 47 47 39 23 19 20 20 21 24 27 23 16 22 31 25 24 41 48 36 27 23 23 25 27 30 29 29 37 34 24 27 30 30 33 33 31 30 30 28 25 24 26
20 20 21 23 23 24 24 21 17 14 18 28 37 42 43 46 49 51 54 55 55 54 49 44 43 45 44 43 43 43 42 43 44 45 47 54 68 77 79 79 75 71 70 69 73 76 70 65 56 40 29 23 20 20 27 38 35 22 20 24 23 26 35 38 31 27 23 20 19 20 26 32 35 37 32 26 29 29 30 35 35 34 34 30 27 25 21 20
27 27 29 32 32 30 28 25 23 19 15 18 27 35 38 40 41 45 50 52 51 51 49 47 44 42 42 40 40 40 39 39 37 39 41 44 54 65 71 77 80 80 80 82 86 87 81 75 72 59 37 29 37 32 21 24 22 16 18 21 23 28 32 30 26 27 27 22 19 18 20 27 38 43 39 32 33 34 36 40 40 38 38 35 32 27 22 20
31 31 34 39 39 40 37 31 28 26 21 19 19 22 26 31 31 34 40 40 40 42 43 44 44 43 42 41 41 40 38 37 36 36 36 35 43 58 66 72 79 83 84 86 91 92 88 82 75 60 43 47 58 42 18 16 15 10 12 14 18 24 27 26 20 19 22 20 16 14 18 29 40 47 49 38 30 30 31 35 39 38 40 44 44 40 34 27
31 31 35 39 41 43 43 40 36 31 28 25 23 19 18 20 22 25 28 28 29 32 33 34 35 36 37 38 40 39 36 35 35 35 35 33 35 45 55 63 71 77 80 85 89 88 87 86 78 63 55 59 56 37 23 23 20 19 20 19 22 22 20 24 24 27 36 37 29 18 17 28 34 35 38 30 23 24 23 24 32 34 35 38 38 37 34 30
29 30 33 36 38 42 43 44 43 38 34 30 28 27 23 19 18 17 18 20 22 23 25 25 26 29 31 33 34 35 37 38 36 34 34 32 30 32 37 48 59 67 71 76 81 82 82 85 84 77 74 72 58 40 34 31 29 42 50 40 34 32 30 32 33 39 45 40 36 33 28 35 43 40 34 27 23 24 25 25 26 28 32 34 35 38 38 39
28 29 31 32 34 38 41 43 44 43 41 38 35 33 30 27 25 21 18 17 17 17 18 19 21 24 24 26 29 31 36 40 36 33 34 32 30 30 29 33 43 54 63 67 69 73 77 79 79 77 77 80 72 57 53 54 54 62 64 53 47 47 45 42 38 42 43 34 37 46 41 45 57 57 48 41 35 30 31 34 31 31 37 39 40 42 39 36
26 26 27 29 30 33 36 39 41 42 43 43 42 38 34 32 30 29 26 24 22 19 16 14 15 17 17 19 23 22 25 30 30 31 32 30 28 28 26 26 30 39 51 60 62 63 70 74 77 76 72 73 71 64 65 69 68 66 62 57 59 60 60 60 56 54 55 49 50 54 48 49 61 65 58 53 50 46 43 41 36 33 35 36 36 35 33 31
24 24 24 26 27 28 31 34 36 38 39 41 42 41 40 37 33 31 30 30 30 28 25 21 16 14 14 14 16 16 16 19 22 25 26 25 24 25 25 25 26 29 38 51 59 61 65 69 72 73 71 68 66 64 65 67 66 66 63 58 60 61 63 65 64 64 65 59 57 57 49 49 59 65 62 56 56 62 64 59 52 43 37 36 36 35 37 38
21 22 23 24 25 26 28 29 31 33 34 36 38 39 40 40 38 35 32 30 30 31 31 30 27 23 20 16 14 14 14 14 17 18 19 19 18 18 20 21 22 24 28 36 46 54 61 64 63 63 62 62 62 62 63 66 65 65 62 57 58 58 56 54 52 57 58 48 45 50 46 44 49 51 51 51 53 62 70 73 70 59 46 40 39 39 42 44
24 24 24 25 25 25 25 27 28 30 32 33 34 35 36 38 38 38 37 34 32 30 29 30 32 32 31 28 23 19 15 15 16 19 22 25 20 18 22 22 19 20 21 24 31 40 48 53 55 55 55 56 57 57 58 58 56 55 55 55 54 50 43 38 35 40 39 29 32 42 39 38 43 44 46 49 51 53 57 62 65 62 55 51 50 50 52 54
36 34 31 29 27 26 27 29 30 30 31 31 31 32 33 34 35 36 37 37 35 34 32 30 29 30 31 33 33 31 26 23 19 17 21 27 24 22 29 31 26 22 18 18 23 26 31 38 42 45 49 50 48 46 45 43 38 39 42 42 40 35 28 24 23 25 22 17 25 32 28 29 40 44 45 46 45 44 46 50 54 55 56 59 62 64 66 68
42 40 38 36 34 32 33 35 35 34 34 33 32 32 32 33 33 34 34 35 35 36 36 34 32 29 28 27 30 33 34 33 30 24 21 22 20 19 26 30 29 24 17 16 20 21 23 29 31 32 37 41 39 33 30 26 22 25 27 26 24 23 20 19 19 18 16 14 18 21 21 27 35 37 36 37 37 37 40 43 44 47 55 62 68 72 75 77
45 44 44 43 42 41 41 41 42 42 41 40 38 37 36 36 36 36 35 35 35 35 35 36 36 34 32 29 27 30 31 31 34 35 32 30 26 22 22 22 22 22 21 19 19 18 19 22 23 23 24 29 31 28 23 18 15 17 18 17 17 18 18 19 18 17 16 15 16 17 18 22 26 27 27 28 29 30 32 34 37 42 48 55 62 67 71 75
46 47 47 47 47 48 48 48 49 49 47 46 46 44 43 43 41 41 41 39 39 38 37 37 37 37 38 37 33 32 32 29 29 31 34 36 36 33 30 25 19 18 21 21 18 18 20 20 18 17 18 22 26 26 23 20 19 18 15 14 16 16 16 18 19 18 16 14 16 18 18 18 18 18 19 19 19 20 22 24 29 32 33 36 42 48 56 65
Wind_Speed
7 8 9 9 10 10 11 11 13 14 15 16 17 18 19 19 19 18 16 14 11 9 8 7 7 6 6 6 6 6 6 7 8 9 10 10 10 10 11 11 11 12 12 12 13 14 15 16 16 16 15 14 14 14 15 15 16 16 16 15 14 15 15 16 16 16 16 15 15 15 17 18 19 20 19 18 17 17 17 16 15 12 11 10 11 10 10 14
8 9 10 10 10 11 11 12 13 13 14 15 16 18 18 19 18 17 16 14 11 9 8 7 7 7 7 6 6 6 7 7 8 8 9 9 9 8 9 10 10 11 11 11 11 12 13 14 16 16 15 15 15 15 15 15 16 17 17 15 15 17 18 17 17 17 16 17 17 17 17 18 18 19 18 18 17 17 16 14 13 11 11 10 9 10 11 14
9 9 10 11 11 11 11 12 12 13 14 15 16 17 18 18 18 17 16 14 11 9 8 8 7 7 7 6 6 6 6 6 6 7 7 8 8 8 8 8 9 9 9 9 9 10 11 13 14 15 15 15 15 14 14 14 16 17 17 16 17 18 18 18 18 18 18 19 19 18 18 18 18 18 18 17 17 16 15 13 13 11 10 9 9 10 13 15
9 10 11 11 11 11 12 12 12 13 14 15 16 17 18 18 18 17 16 14 11 9 8 8 7 7 7 6 6 6 6 6 6 6 6 7 8 8 7 7 7 7 7 7 7 8 9 11 12 13 14 14 15 14 13 14 15 17 17 18 19 19 19 19 19 19 19 19 19 19 19 19 19 19 18 18 16 16 15 14 12 11 10 9 9 10 13 15
10 10 11 11 12 12 12 12 12 13 13 14 15 16 17 18 18 17 16 14 12 10 8 8 8 7 7 7 6 6 6 6 6 6 6 6 7 7 6 6 5 4 4 4 5 7 8 10 10 11 12 13 14 13 12 13 14 15 17 17 18 19 20 20 19 20 21 20 20 20 20 20 20 19 19 18 17 16 15 14 13 12 10 8 9 11 12 13
11 11 12 12 12 12 12 12 12 12 13 14 15 15 17 17 18 17 16 14 12 10 9 8 8 7 7 7 6 6 6 6 6 6 6 5 5 5 4 4 4 4 4 4 6 7 7 8 8 9 10 12 12 12 12 13 13 14 15 15 16 17 18 19 19 21 22 22 21 20 20 20 20 20 19 19 18 17 15 14 13 12 10 9 9 10 10 11
12 12 12 12 12 13 12 12 12 12 13 13 14 15 16 17 17 17 16 14 12 10 9 8 7 7 7 7 6 6 6 6 6 6 6 5 4 3 3 3 4 4 5 6 7 8 7 7 7 7 8 10 11 10 11 11 11 12 12 13 15 16 17 18 20 22 23 23 22 20 20 20 20 20 19 19 18 16 15 14 14 12 11 10 10 10 10 11
12 13 13 13 13 13 13 13 12 12 12 13 14 14 16 17 17 17 16 15 12 10 9 8 8 7 7 6 5 5 5 5 5 6 5 4 2 2 3 3 4 5 6 7 8 8 8 7 6 5 6 8 9 9 10 10 9 10 11 12 13 14 16 18 20 23 24 23 22 21 20 19 19 19 19 18 17 16 15 15 15 13 13 12 12 12 12 12
12 13 13 13 13 13 13 13 13 12 12 13 13 14 15 16 17 17 16 15 13 11 9 8 8 7 6 5 5 5 5 5 5 5 4 3 2 2 3 4 4 5 7 7 8 9 9 8 7 5 4 5 6 7 8 9 9 9 10 11 12 13 15 18 21 23 24 24 23 23 23 22 21 19 19 18 17 16 16 15 15 15 15 14 14 14 14 14
13 13 13 14 14 14 14 14 13 13 12 13 13 14 15 16 17 17 16 15 13 11 10 8 8 7 6 5 4 4 5 5 6 5 4 3 3 3 4 5 5 6 8 8 9 9 10 9 7 5 4 4 4 5 7 7 7 8 9 10 12 13 14 18 21 24 25 25 24 24 25 24 23 21 20 19 18 17 17 17 17 17 17 17 16 16 16 15
14 14 14 15 15 15 15 14 14 13 13 13 13 14 15 16 17 17 16 15 13 12 10 8 8 7 7 5 5 4 5 6 6 6 5 4 4 4 5 6 6 7 7 8 9 10 10 9 7 6 5 4 3 5 6 6 6 7 8 10 11 12 13 16 20 23 25 25 24 24 23 22 22 22 21 21 20 19 19 19 19 19 19 18 18 17 16 14
17 16 16 17 17 17 16 15 15 14 13 13 13 14 14 15 16 17 16 16 14 12 10 8 7 7 7 6 5 4 5 6 6 6 6 5 5 5 5 6 7 7 7 8 9 10 10 8 7 6 6 4 2 4 5 6 7 7 7 10 11 11 13 15 17 20 22 24 24 21 20 21 22 21 22 22 21 20 20 20 20 20 20 19 18 17 16 14
20 19 18 18 19 18 18 17 16 15 14 14 13 13 14 15 16 16 16 15 14 12 10 8 7 7 6 6 5 4 5 6 6 6 7 6 5 5 6 6 6 7 7 8 9 10 10 8 7 7 6 4 2 2 4 6 7 7 8 10 10 11 12 14 15 17 19 20 21 20 20 22 22 22 22 21 21 22 21 21 21 21 20 19 19 17 16 14
21 20 19 19 19 19 19 18 17 16 15 14 14 13 13 14 15 15 15 15 13 12 10 9 7 6 6 6 4 4 5 6 7 7 7 6 6 5 5 6 6 6 6 6 8 9 8 8 8 7 6 4 2 1 3 5 7 8 9 11 11 11 12 13 13 14 15 17 19 20 20 21 21 20 21 21 21 22 22 22 21 20 20 20 19 18 16 15
20 19 18 18 18 18 18 17 16 15 15 14 13 13 13 14 14 15 15 14 13 12 10 9 7 6 6 5 4 4 5 6 7 7 7 6 6 5 5 5 6 6 6 5 6 7 7 7 8 7 5 3 2 1 2 4 6 7 8 11 13 11 12 13 12 12 13 14 16 17 20 22 20 20 20 20 21 21 21 20 20 20 20 21 20 19 18 17
19 19 18 17 17 17 16 16 15 14 13 13 12 12 13 13 14 14 14 13 12 12 10 8 7 6 5 4 4 4 5 6 7 7 7 6 5 5 5 5 6 6 6 6 6 6 6 7 8 6 5 4 3 2 1 2 5 6 8 11 12 11 13 13 12 12 13 14 15 15 17 18 17 17 17 17 17 17 17 17 18 19 20 21 20 19 19 19
19 19 18 17 16 16 15 14 14 13 12 11 11 11 12 12 13 13 13 13 12 11 10 8 7 6 4 3 3 3 4 5 6 6 6 5 5 4 5 5 6 6 6 7 7 6 7 8 8 7 6 6 4 2 2 1 3 5 7 10 11 12 11 9 10 11 12 13 14 15 16 15 14 14 14 13 13 13 13 14 15 17 19 20 20 20 20 20
20 20 19 17 15 15 14 13 12 11 10 10 9 9 10 11 12 12 13 13 12 10 9 7 6 5 3 2 2 2 3 4 5 6 6 5 4 4 4 5 6 7 7 8 8 7 8 8 8 8 8 7 6 4 3 1 2 3 4 5 8 11 9 8 10 11 12 12 12 13 14 13 12 12 11 12 12 12 13 13 14 16 19 20 20 20 21 20
21 21 20 17 15 14 13 12 10 9 9 8 8 8 9 10 11 11 12 12 12 10 9 7 5 4 3 2 2 2 3 4 5 6 6 5 4 4 5 6 6 8 9 9 8 8 8 8 9 9 8 8 6 5 4 3 3 4 3 1 3 7 7 8 11 12 12 12 12 12 12 12 11 11 12 13 14 16 16 15 15 17 19 21 21 20 21 22
22 22 20 17 14 13 11 10 8 7 7 7 7 7 7 8 10 10 11 11 11 10 9 7 5 4 3 3 2 2 3 4 6 6 6 6 5 4 5 5 7 8 8 8 7 7 7 7 7 5 6 9 7 6 5 5 6 6 5 4 3 3 6 8 9 11 12 12 12 13 12 13 12 13 14 15 17 18 19 18 18 19 20 22 23 21 21 23
23 23 21 17 12 10 10 8 6 6 6 6 6 6 6 7 8 9 10 11 10 10 9 7 4 3 2 2 2 2 3 4 5 6 7 7 5 4 4 5 6 6 8 8 6 8 8 5 5 4 6 10 9 8 8 8 8 7 6 5 5 5 6 7 6 8 9 9 11 12 12 13 13 14 15 15 17 18 18 18 19 21 22 23 24 22 21 22
23 22 20 15 10 8 7 6 4 4 4 4 5 5 6 7 8 9 9 10 10 10 8 7 4 2 1 1 1 2 3 3 4 5 6 7 5 3 3 4 6 5 6 6 5 8 7 2 5 7 8 10 9 9 9 9 9 8 6 5 5 9 9 6 4 4 3 3 6 8 9 11 12 12 13 14 15 16 17 18 20 22 24 25 24 22 21 22
21 19 16 11 6 5 5 4 3 2 2 3 4 5 5 6 7 8 9 9 9 8 7 6 3 1 1 1 1 2 2 2 3 3 5 6 5 3 3 4 5 5 6 5 4 6 3 2 6 7 8 9 9 9 8 8 9 8 7 6 5 8 9 5 4 3 2 1 2 3 3 5 7 7 8 9 11 12 13 16 18 21 23 25 24 21 20 22
19 16 12 7 2 2 2 2 2 1 1 2 3 4 5 6 7 8 8 8 8 7 6 5 3 2 2 2 3 3 2 2 2 2 4 5 5 3 2 3 4 5 5 4 5 5 1 2 5 4 5 7 7 8 7 6 7 8 7 7 6 6 7 5 4 5 6 5 3 3 2 3 5 4 4 4 5 6 7 10 13 14 18 22 21 20 19 19
17 13 9 5 2 1 1 1 1 1 1 2 3 4 5 6 7 8 8 8 7 7 6 4 4 3 3 3 4 4 4 3 2 3 4 4 4 2 1 2 2 3 3 3 4 3 2 3 2 2 4 5 6 6 6 4 4 6 6 5 5 5 5 6 7 9 9 7 7 7 4 4 7 6 5 5 6 5 5 6 5 6 10 16 19 18 17 18
16 12 9 5 3 2 2 2 2 2 2 2 3 4 6 7 7 8 7 7 7 6 5 4 3 3 3 3 4 4 4 3 2 2 3 3 3 3 1 1 1 2 2 3 3 1 2 3 2 1 3 4 5 5 4 5 4 4 4 3 4 4 4 6 8 9 6 4 5 6 5 2 5 7 6 5 6 5 4 3 2 2 2 4 11 13 14 14
15 12 9 7 5 4 3 2 2 2 2 3 4 5 6 6 7 7 7 6 5 5 4 3 2 2 3 3 3 3 4 4 2 3 2 2 3 3 2 2 2 1 2 3 3 1 2 4 3 1 1 2 3 3 3 5 4 3 3 2 3 5 5 5 7 6 3 3 5 6 5 3 4 6 6 6 5 4 3 3 3 3 4 5 6 8 8 8
14 12 10 8 6 5 4 3 3 2 3 4 5 6 6 7 7 7 6 6 5 5 4 3 2 1 2 3 3 3 3 3 3 4 3 2 2 2 2 3 3 4 3 1 1 4 2 2 3 3 2 1 1 1 2 4 3 2 1 2 3 4 4 4 4 5 4 4 4 5 5 4 4 6 7 7 5 3 2 3 4 4 3 1 3 5 6 6
14 12 10 8 6 5 4 3 3 3 4 5 6 7 7 7 8 7 6 6 5 5 4 3 3 2 3 4 3 3 3 3 3 4 4 3 3 3 3 3 4 5 5 3 3 5 3 1 2 4 4 3 2 2 2 2 2 2 2 2 3 3 4 3 3 3 3 3 3 3 4 4 2 5 7 6 5 3 2 3 3 4 5 4 3 4 4 5
13 12 10 9 7 6 5 4 4 4 4 5 6 7 7 8 8 6 6 6 6 6 4 4 4 3 4 4 4 4 5 5 4 4 4 4 4 4 3 3 4 5 6 6 5 5 4 3 3 3 4 3 2 2 1 0 1 2 3 3 4 4 4 3 3 2 1 1 2 2 3 4 3 4 5 5 5 5 4 4 3 2 3 4 4 4 6 6
13 11 10 9 8 6 5 5 4 4 4 5 6 7 7 8 7 6 6 6 6 5 4 4 4 4 4 4 5 6 6 5 4 4 4 3 4 4 4 4 4 5 6 6 6 6 5 4 4 4 3 2 2 1 1 1 2 2 2 3 3 3 3 2 1 1 1 1 2 1 1 2 2 4 5 6 7 7 7 5 3 1 0 1 2 4 6 7
13 12 10 9 8 7 6 5 4 4 4 5 6 7 7 7 7 5 5 6 6 5 4 4 3 3 3 4 6 7 7 5 3 2 2 2 2 3 4 4 4 3 4 5 6 6 6 5 5 5 4 3 2 0 0 0 1 2 2 3 1 2 2 2 3 3 3 3 4 3 3 3 4 5 5 6 7 7 6 4 2 0 1 2 3 3 4 5
13 12 11 9 8 7 6 5 4 4 4 4 6 7 6 6 5 5 5 6 6 6 4 3 2 2 3 5 6 7 7 5 3 1 1 2 2 1 2 3 3 3 3 5 5 5 5 6 7 6 5 5 3 1 1 2 2 2 2 1 1 3 4 4 4 4 4 5 6 5 4 4 4 5 5 6 7 7 6 4 3 3 3 3 3 4 4 5
13 13 11 10 9 7 6 5 4 4 4 5 5 6 5 4 4 5 6 6 7 6 4 3 2 2 3 4 6 7 6 5 4 2 1 1 1 1 2 3 3 3 4 5 6 5 3 5 7 7 6 6 5 4 4 3 4 3 2 2 2 3 5 5 4 4 4 5 5 4 5 5 4 5 7 8 7 7 7 6 6 5 5 5 5 5 6 6
12 12 11 11 10 9 7 5 4 4 4 4 4 5 4 4 4 4 5 6 7 6 4 2 1 2 3 4 5 5 4 4 3 2 1 1 1 1 3 3 3 3 4 5 5 5 4 6 8 7 7 8 7 7 6 5 4 4 3 3 3 4 5 5 5 5 5 5 5 5 6 6 6 7 8 8 8 8 7 7 7 7 7 7 7 7 8 8
11 11 11 11 11 11 10 7 5 4 3 3 3 4 4 3 3 4 5 7 7 6 4 2 1 2 3 4 5 5 4 3 2 1 0 1 2 2 3 3 3 3 3 4 4 4 5 7 10 8 7 8 7 7 7 6 5 5 4 5 5 5 6 7 7 6 6 6 6 6 7 7 8 8 8 9 9 9 8 9 9 10 10 10 10 10 10 10
10 10 10 11 12 13 13 11 8 4 2 2 3 3 3 3 3 3 5 7 7 7 5 2 2 3 4 5 5 5 4 3 2 2 1 2 3 4 4 4 4 3 3 3 4 5 6 8 11 10 9 9 9 8 7 7 7 7 6 6 7 7 7 8 9 8 8 8 7 7 8 8 8 9 10 10 11 10 10 10 11 12 12 12 12 12 12 13
9 9 10 11 12 13 14 14 12 8 4 3 2 2 2 3 3 4 5 6 7 7 6 3 3 3 4 5 5 6 5 3 3 3 2 3 4 5 5 5 5 4 4 3 4 6 6 8 12 12 11 11 11 9 8 8 9 9 9 9 8 8 8 10 10 10 10 10 9 8 8 8 9 11 12 12 12 12 12 12 13 13 14 13 13 13 14 14
8 9 9 10 11 12 13 14 14 12 8 4 3 3 3 3 4 4 5 6 6 6 6 5 4 4 4 4 5 6 5 4 4 4 3 4 5 6 6 6 6 6 5 5 5 6 6 7 10 12 12 12 11 10 9 10 11 11 11 11 10 10 11 12 12 12 12 12 11 11 10 10 12 13 14 15 15 15 15 14 15 16 16 16 15 16 16 16
7 8 9 9 10 10 11 12 13 13 11 7 4 4 4 4 4 4 4 5 5 5 4 5 4 4 5 5 5 5 5 5 5 4 4 4 5 6 7 7 8 8 9 8 8 8 8 8 8 10 12 11 10 12 12 12 13 13 12 12 12 12 13 14 14 14 14 14 14 13 12 13 15 16 15 17 17 17 17 17 17 18 18 18 18 18 18 18
7 7 8 8 9 9 10 10 11 12 12 10 8 5 5 5 5 4 4 4 3 3 3 4 4 4 5 5 5 6 6 6 6 5 5 5 5 6 7 8 9 10 11 11 11 11 11 11 10 10 10 9 12 15 16 15 15 14 13 13 13 14 14 15 15 14 15 15 15 15 13 14 17 17 17 17 18 18 18 18 19 19 20 20 20 21 21 21
7 7 7 7 8 8 9 9 9 9 10 10 10 8 7 5 5 5 5 5 4 3 3 3 4 4 4 5 6 6 6 7 7 6 6 7 7 7 8 9 10 11 12 12 13 14 14 13 13 11 10 13 16 17 16 16 15 15 14 14 14 15 15 16 16 15 15 15 15 15 13 13 17 19 19 18 18 19 19 19 20 20 21 22 22 23 23 23
8 8 8 7 7 7 8 8 8 7 8 8 9 10 9 8 7 6 5 5 5 5 4 4 4 4 4 5 5 6 6 7 7 7 8 8 9 9 10 11 11 11 12 12 13 14 15 14 14 12 11 14 17 16 16 17 15 13 13 13 14 14 14 15 15 15 16 15 15 16 13 11 16 19 19 18 17 19 19 18 19 20 21 22 22 23 23 23
8 9 9 8 8 8 7 7 7 7 7 7 7 8 9 9 9 8 8 7 6 6 6 5 5 4 4 4 5 5 5 6 7 8 9 10 10 11 11 12 13 13 12 12 12 12 14 14 15 14 13 15 18 17 16 16 14 13 15 15 15 15 15 15 15 17 17 14 15 18 14 12 16 18 17 18 18 18 19 18 19 20 21 22 23 25 25 24
9 10 10 10 10 9 8 7 7 7 7 7 7 7 7 8 9 9 10 9 9 8 7 7 6 6 5 5 5 5 5 6 7 7 8 9 10 11 12 12 13 14 14 14 13 13 14 14 15 17 17 18 19 17 16 16 16 17 18 17 17 17 17 17 17 17 17 14 15 18 15 14 17 18 17 19 19 19 20 20 21 21 22 23 25 26 26 25
11 11 11 11 11 11 10 9 9 9 9 9 9 8 8 8 8 9 9 10 10 10 9 9 8 8 7 7 6 6 6 6 7 7 8 9 9 10 11 12 13 14 15 15 15 15 15 16 16 18 19 20 21 19 18 20 21 20 20 19 19 19 18 18 18 18 19 17 15 16 16 16 18 19 20 20 19 19 19 20 21 21 22 24 26 27 27 27
13 13 12 12 12 12 12 12 12 11 11 11 10 10 10 10 10 10 10 10 10 11 11 11 10 10 10 10 9 8 8 7 7 8 9 10 11 11 12 13 13 14 15 16 17 16 17 18 18 19 19 20 21 21 20 21 21 21 21 20 20 20 19 19 19 18 19 19 14 14 16 16 17 20 21 21 21 21 19 19 20 21 22 25 27 28 28 28
16 16 15 15 13 13 13 13 14 14 14 13 13 12 12 13 13 13 13 12 11 11 12 11 12 13 12 12 12 11 10 9 8 8 9 10 11 12 12 13 14 14 15 16 16 17 18 19 19 20 21 20 21 22 21 20 20 19 19 19 20 20 19 19 18 18 20 18 14 14 16 15 16 20 21 23 24 24 22 21 21 22 23 25 26 26 27 28
19 18 18 17 16 15 15 15 15 16 16 16 15 15 15 15 15 15 15 15 14 13 13 12 13 14 14 14 14 13 13 12 10 9 9 10 10 11 11 12 13 14 15 16 16 17 18 19 20 21 21 21 22 22 21 21 20 18 18 19 21 21 20 20 19 19 20 17 14 15 15 13 16 20 22 23 25 24 23 22 22 22 22 22 23 24 24 25
19 19 19 19 18 18 18 17 17 18 18 18 17 17 17 17 17 17 17 17 17 16 16 15 15 15 15 15 15 15 15 15 14 12 12 11 11 11 12 12 13 14 15 16 16 17 19 19 20 21 21 22 23 23 22 22 20 19 19 20 21 20 19 20 20 20 20 17 15 15 14 12 16 20 21 22 23 22 22 21 21 20 19 19 20 21 21 22
20 20 20 20 20 21 20 20 20 20 20 20 20 19 19 19 19 20 19 20 20 20 19 19 18 18 18 18 18 17 17 17 16 16 15 14 13 13 13 13 15 15 16 17 17 17 19 20 21 21 21 22 23 23 23 22 20 20 20 20 20 19 19 19 20 20 20 19 17 17 15 15 18 19 19 19 20 20 20 19 18 18 17 17 18 19 19 19
21 21 22 22 21 22 22 23 23 23 23 23 23 22 22 22 22 22 21 21 22 22 22 22 21 21 21 22 21 21 20 19 18 18 18 17 17 17 16 16 16 16 17 17 18 17 19 21 22 23 21 21 22 23 24 23 21 21 21 19 19 20 19 19 20 20 20 20 19 18 17 17 17 17 17 18 18 18 18 18 17 16 16 16 16 17 17 17
Wind_Direction
323 323 322 324 327 330 332 333 335 336 338 339 340 342 343 343 343 342 341 339 338 338 335 331 326 319 314 308 301 293 286 282 281 281 283 285 287 286 286 285 283 280 278 277 275 272 268 265 262 260 257 254 252 247 242 239 236 235 232 233 233 231 229 228 225 219 219 214 201 192 191 192 196 201 206 211 220 230 241 248 253 259 267 282 289 290 292 290
318 318 318 319 321 323 324 327 330 333 336 339 341 343 344 345 344 344 342 341 340 337 334 333 331 326 321 317 309 301 295 291 289 289 291 292 292 289 286 286 284 283 282 281 279 276 271 266 261 258 256 253 251 247 242 238 235 233 231 229 228 228 231 232 227 221 220 214 204 197 196 197 201 209 217 222 227 235 243 250 258 266 273 281 285 289 291 289
314 314 314 315 316 318 318 321 326 330 334 338 341 344 345 346 346 345 344 342 340 337 334 333 332 329 327 325 317 312 309 305 302 301 302 303 302 298 292 286 285 286 286 286 286 283 277 270 263 258 254 252 250 247 243 237 234 233 230 227 228 230 233 232 225 221 220 213 204 200 202 202 205 213 222 227 232 238 244 252 261 266 271 280 285 292 294 293
309 309 309 311 312 313 314 317 322 327 332 337 340 343 345 346 347 346 346 343 340 337 333 331 330 330 332 334 331 328 327 323 320 317 314 311 308 305 300 294 292 292 291 292 293 290 284 276 269 260 254 251 249 247 243 238 237 235 231 229 230 230 229 228 223 221 222 215 208 207 208 207 210 218 225 232 235 238 245 252 256 259 267 280 287 292 294 295
304 305 306 307 309 309 310 313 318 323 330 335 339 343 344 347 348 347 346 343 341 338 333 330 328 330 335 342 343 341 341 336 333 329 323 317 311 309 309 311 308 306 304 306 308 303 294 285 277 268 258 251 247 245 242 238 237 237 236 236 235 234 231 230 224 220 221 218 214 214 212 211 214 221 227 232 235 236 242 249 252 257 267 279 284 286 286 288
303 303 304 305 307 307 308 310 314 320 327 332 336 340 343 346 347 346 345 344 342 339 335 330 328 330 336 345 349 350 347 343 340 335 330 322 316 317 322 327 331 334 341 341 333 320 305 297 290 280 266 252 245 242 240 239 238 238 239 240 240 240 238 233 226 221 220 218 215 215 216 215 216 221 224 228 231 234 239 245 252 259 266 273 280 284 281 276
304 305 305 305 305 305 305 307 311 316 323 329 333 338 341 344 346 345 344 344 342 339 337 332 328 330 337 347 354 354 352 349 345 339 335 328 325 342 352 358 5 6 6 359 343 331 322 319 314 295 272 252 243 239 238 240 238 238 239 240 242 242 239 233 227 222 220 218 216 216 218 218 218 220 222 226 229 232 237 246 255 260 263 267 275 281 278 270
308 308 307 306 304 304 304 304 307 313 319 324 328 334 339 342 344 344 344 344 343 340 338 333 329 331 337 349 357 356 355 355 350 342 335 333 343 19 32 31 28 21 11 1 346 337 340 349 348 317 278 255 248 239 235 239 237 235 238 240 243 241 236 231 225 223 219 217 218 218 218 219 220 221 223 227 230 232 238 248 255 257 258 265 272 278 279 273
312 311 309 306 304 303 302 302 305 309 314 319 324 330 336 340 342 343 344 343 342 340 338 335 332 332 336 347 357 359 0 0 355 344 335 341 18 52 54 44 36 25 13 3 352 346 355 9 8 340 298 275 264 240 229 236 235 234 236 239 242 239 235 229 223 220 216 214 217 220 220 219 220 224 227 229 230 233 239 247 252 254 259 267 273 278 281 277
313 312 310 307 304 302 301 301 303 306 310 313 319 325 332 337 340 341 343 343 342 339 338 335 333 332 333 344 1 5 5 4 354 343 341 0 32 49 48 43 34 26 15 5 357 354 6 18 16 5 344 308 279 242 226 229 234 237 239 241 243 240 235 229 223 221 221 221 222 225 225 221 221 226 229 231 232 234 240 247 250 254 260 266 272 276 279 277
309 309 307 305 303 302 300 300 301 302 305 309 314 321 327 333 337 339 341 343 341 338 337 335 335 333 331 344 5 8 9 7 353 344 354 13 29 39 40 39 34 27 17 6 359 358 12 26 24 19 10 339 289 239 225 217 223 236 244 248 248 245 239 232 227 226 229 231 230 232 235 234 231 229 230 234 237 238 242 247 251 255 261 265 271 275 275 275
304 303 302 300 298 298 298 298 298 299 300 304 309 315 322 329 334 336 339 342 342 339 337 336 336 332 332 346 0 9 14 7 356 355 6 16 24 34 38 37 35 28 20 8 359 0 15 31 31 24 16 354 292 229 221 211 213 227 246 251 250 247 241 236 232 231 234 238 242 245 247 250 247 239 234 236 241 243 245 247 252 257 263 268 272 274 273 270
301 300 298 296 295 293 293 293 294 295 297 299 304 310 318 325 330 334 337 341 342 340 337 337 339 336 336 346 358 14 19 6 1 7 13 17 20 30 38 39 37 33 24 10 0 3 17 36 39 29 18 0 317 224 216 214 215 223 238 245 247 247 243 240 237 237 238 241 248 251 248 249 248 243 238 238 242 246 248 251 255 261 266 268 269 271 270 265
302 300 299 297 294 292 290 290 290 292 294 296 300 306 313 321 326 331 335 339 342 340 338 339 342 343 340 346 1 16 17 6 7 13 13 16 19 26 37 41 44 42 31 15 3 4 18 39 44 34 23 9 349 264 225 219 224 228 235 242 242 241 244 247 244 243 243 242 245 246 245 246 245 243 241 240 243 246 250 253 257 262 266 267 267 266 264 258
305 304 303 301 297 294 291 289 287 287 289 292 296 302 309 317 323 328 333 337 340 340 339 340 344 348 344 346 359 7 11 9 9 11 11 14 17 22 34 43 51 52 46 32 11 6 22 44 49 40 28 19 11 337 249 233 240 237 241 246 240 235 245 253 253 255 255 252 253 251 248 248 247 246 245 243 245 248 250 255 258 262 266 266 264 262 258 251
309 308 307 304 299 295 291 288 286 284 284 287 291 298 306 313 320 326 331 335 338 339 339 340 344 346 344 346 351 0 6 7 7 8 8 10 14 24 37 47 54 55 50 42 25 16 28 47 51 49 39 30 28 14 323 257 259 247 246 255 249 239 242 249 255 260 263 260 261 262 256 252 250 251 252 252 252 253 254 256 257 258 260 261 260 257 254 249
312 310 308 305 300 295 291 287 285 282 279 281 285 293 302 311 319 324 329 333 336 338 338 337 339 341 345 344 346 358 3 3 5 6 6 7 17 37 46 53 62 64 60 52 40 30 35 47 55 56 47 36 27 21 48 347 276 250 247 262 268 261 248 243 251 254 259 260 258 262 262 257 258 260 261 262 261 259 257 254 252 249 251 255 256 255 253 250
314 312 309 306 301 294 290 286 284 280 276 277 281 289 300 310 318 323 328 331 334 337 336 335 335 339 341 333 338 353 3 9 8 7 8 11 27 50 56 63 69 71 70 62 49 36 35 42 50 55 51 39 22 24 52 36 319 303 270 264 272 277 266 248 253 254 251 253 252 256 263 264 266 266 265 268 270 268 265 259 251 248 249 251 253 253 252 249
316 313 310 306 301 294 290 287 284 280 275 274 277 287 300 312 318 323 327 329 333 335 336 336 334 334 328 323 340 354 10 19 11 4 6 13 28 56 64 64 67 71 73 68 56 42 37 37 39 45 47 38 24 26 47 46 15 11 2 343 277 280 282 266 258 257 254 253 254 255 259 264 267 270 271 271 271 271 270 264 254 249 248 249 249 249 248 246
318 315 311 308 301 295 292 290 286 282 276 272 277 289 302 314 320 325 328 329 332 333 335 337 334 334 330 334 353 7 24 28 12 1 3 10 18 55 65 61 67 76 79 79 73 55 46 41 37 37 33 34 38 38 43 54 50 46 47 39 5 298 295 290 266 259 262 260 260 259 259 265 271 275 276 274 273 271 267 261 252 248 246 247 247 245 244 243
321 317 313 310 303 295 294 292 290 286 276 274 280 292 306 317 324 328 329 331 333 333 334 335 338 344 340 345 2 23 37 32 15 1 4 8 10 48 65 59 63 75 80 83 82 66 63 48 19 12 23 35 46 42 33 44 57 62 59 39 9 348 325 315 292 272 271 265 264 266 267 269 271 272 273 274 272 267 261 256 250 247 246 246 245 243 241 240
326 321 316 314 305 294 295 293 295 293 282 282 285 299 315 323 329 331 333 335 335 334 334 334 339 0 354 357 19 40 46 42 25 5 6 8 3 31 58 57 57 64 75 78 64 57 65 43 8 8 12 27 41 38 25 28 45 56 48 42 20 356 349 351 345 319 291 271 264 262 262 263 265 269 273 273 268 261 256 252 249 248 248 247 246 243 239 236
333 329 324 320 310 293 296 299 305 307 289 284 294 313 325 330 335 339 339 338 337 336 336 332 334 350 350 15 39 47 51 49 37 14 13 10 357 11 47 52 56 54 59 70 71 65 57 5 17 4 356 15 33 36 26 19 31 44 33 35 40 3 358 11 14 29 85 123 221 227 246 267 275 279 279 274 267 263 258 255 253 250 247 244 243 242 237 233
343 340 337 339 336 298 304 317 322 324 293 292 313 325 333 339 345 346 342 340 342 341 335 327 329 342 357 19 26 25 19 21 31 11 9 7 354 0 42 48 54 50 43 58 87 104 135 33 29 357 351 8 23 30 28 20 25 38 30 25 32 13 15 38 52 76 80 67 59 69 50 333 329 331 314 312 303 284 271 266 262 254 244 237 235 235 232 227
354 354 355 11 39 33 35 37 352 345 331 332 339 339 344 351 353 349 344 344 350 348 338 334 340 352 9 20 17 7 354 352 353 344 348 351 344 342 30 50 52 51 36 34 64 94 105 77 56 333 350 4 15 19 22 26 22 31 30 18 15 14 39 53 53 61 54 31 24 47 58 312 328 356 0 1 358 339 307 288 274 265 249 233 228 229 223 214
4 6 11 25 45 64 78 65 17 2 358 0 359 355 354 357 355 348 347 353 358 357 353 353 356 6 19 22 11 354 337 338 326 311 322 326 325 323 346 11 14 35 19 13 35 101 127 122 157 318 342 357 11 0 11 37 41 37 26 2 1 19 49 50 48 57 47 351 356 40 69 279 319 348 353 359 1 351 336 338 10 12 346 206 204 209 209 205
12 15 22 32 46 66 76 62 35 13 8 14 12 4 0 360 357 352 354 4 8 4 7 33 54 31 25 22 15 357 340 339 317 285 287 292 299 310 321 307 290 299 325 21 22 305 165 141 157 172 298 332 9 0 27 44 49 48 23 346 359 26 48 44 44 57 45 348 357 15 25 6 341 336 341 350 351 350 341 352 12 23 46 89 143 166 179 186
17 22 30 39 50 61 64 56 46 22 13 21 18 9 4 2 1 1 4 10 19 18 20 54 56 10 33 36 17 2 340 327 295 271 262 241 257 293 303 289 271 270 283 39 353 277 255 145 163 179 213 250 269 315 30 46 50 50 33 17 16 30 51 53 45 41 24 7 358 348 345 357 350 325 338 349 340 343 334 326 336 339 0 75 142 149 164 171
20 24 31 41 51 56 56 55 48 30 23 25 20 12 6 5 5 9 16 16 20 19 13 16 4 359 49 45 16 346 318 303 283 267 261 238 233 261 289 293 279 266 269 270 261 274 292 284 202 188 199 223 236 270 0 44 56 53 57 54 39 41 53 58 57 43 29 12 352 347 338 344 338 311 330 344 328 324 325 321 321 317 315 290 232 189 198 207
22 24 29 38 46 50 52 53 47 36 29 26 21 15 9 8 9 13 21 18 10 10 12 17 22 37 49 34 6 339 315 299 279 260 255 245 237 242 253 278 291 280 271 272 274 282 297 292 260 217 205 210 224 251 307 80 69 56 61 60 47 43 44 49 58 52 51 18 352 356 332 338 342 308 313 320 309 312 324 343 359 332 311 299 276 242 232 234
22 24 28 34 41 46 51 51 46 35 27 25 23 19 12 11 15 17 17 12 6 11 21 30 40 55 46 17 357 345 330 314 284 254 241 238 236 233 232 251 286 295 282 278 281 281 284 293 288 266 238 209 207 221 209 156 125 99 77 65 48 26 18 25 27 336 307 313 304 256 259 300 301 283 289 288 287 296 305 324 4 39 161 232 250 249 243 239
22 23 26 30 34 38 43 44 40 29 18 18 18 18 14 13 20 23 17 11 7 11 18 22 29 40 32 9 358 355 351 343 309 253 224 226 236 227 227 250 278 291 280 278 285 284 288 305 309 291 271 252 235 135 24 324 131 132 105 75 35 311 311 293 281 298 314 301 281 259 238 245 258 262 267 271 269 272 276 288 312 336 162 169 177 199 221 228
23 23 24 27 27 26 28 30 31 24 11 2 5 9 11 16 21 21 16 11 6 5 6 7 8 9 12 7 2 3 8 17 35 72 167 206 235 224 208 234 258 263 255 260 271 278 292 310 317 312 294 272 259 239 275 290 258 200 157 118 285 293 292 275 273 294 307 293 278 265 243 241 261 259 247 248 251 246 239 239 241 221 193 193 196 197 203 210
25 25 25 25 23 17 11 9 7 7 358 349 351 357 1 12 18 18 16 10 3 0 356 353 348 342 355 3 6 8 15 28 48 68 71 220 232 243 222 228 241 247 247 250 255 259 268 287 299 306 301 283 266 245 236 239 239 233 213 189 217 276 282 268 267 281 284 280 271 257 243 242 256 254 242 240 240 235 231 230 232 231 224 224 227 227 229 230
24 27 26 24 22 16 7 354 340 336 338 337 339 346 350 358 10 16 16 10 2 358 352 339 315 319 339 355 3 7 16 23 32 58 39 298 261 250 250 244 236 238 245 246 246 254 260 266 275 286 289 284 275 258 250 250 255 265 276 258 235 249 264 265 271 273 268 268 264 254 250 251 255 253 243 243 245 241 244 247 245 247 249 250 249 248 251 252
23 25 26 25 23 18 12 1 345 333 330 329 334 343 343 343 0 11 10 9 5 1 358 337 288 292 314 333 348 353 5 13 3 24 29 272 270 267 261 253 241 236 246 250 250 255 262 267 271 274 277 280 280 272 261 250 252 263 269 265 255 251 258 266 270 269 264 265 263 259 262 262 266 267 257 254 258 258 258 259 255 256 260 262 262 262 263 264
23 22 23 23 23 21 17 12 5 358 349 338 341 350 339 330 345 355 357 7 9 6 6 345 289 284 299 314 328 331 341 349 326 320 285 250 257 261 261 263 259 252 245 242 244 243 249 269 275 274 274 274 272 270 268 257 250 253 255 257 262 264 266 269 270 269 267 267 264 260 264 265 266 272 271 267 267 268 267 264 260 260 261 263 264 264 265 266
19 20 20 21 21 21 21 19 16 14 13 0 348 338 325 321 333 342 347 1 9 8 8 356 318 300 299 308 316 317 328 334 307 296 270 244 244 248 253 262 265 261 243 226 237 247 248 265 272 271 269 268 268 266 270 274 266 258 255 256 261 265 268 270 271 270 267 268 269 266 265 264 260 261 267 268 267 267 267 265 265 264 264 265 266 265 264 264
15 16 17 18 18 18 20 21 20 21 21 13 347 324 318 318 323 334 343 354 4 5 6 0 344 327 313 313 315 314 319 318 300 292 274 249 244 244 242 243 246 250 246 234 243 256 256 260 270 273 267 265 271 268 263 271 272 268 270 271 268 264 261 263 267 269 271 270 270 268 264 264 263 260 260 262 262 263 262 261 262 264 265 265 265 264 263 262
10 11 11 14 14 12 16 20 21 21 23 21 3 330 320 318 319 328 335 342 354 359 359 355 349 341 331 327 322 316 314 313 306 296 281 260 246 244 241 237 236 239 242 245 249 254 257 257 264 276 277 276 277 264 252 254 261 265 272 276 277 274 270 270 271 272 273 271 269 266 260 260 265 264 259 258 258 259 260 260 260 260 261 261 262 264 263 262
360 3 5 9 9 8 11 16 18 20 20 21 15 357 337 325 322 326 326 327 339 353 353 346 342 342 336 328 323 319 317 314 308 299 290 276 259 254 252 248 243 242 244 248 252 253 254 256 255 266 278 278 268 263 260 259 260 261 263 265 269 272 273 276 277 277 276 273 271 269 261 260 267 267 261 260 262 262 261 261 261 261 261 260 260 261 262 264
341 347 353 358 3 4 4 8 13 16 16 15 13 7 0 349 337 332 326 324 332 340 341 336 337 340 335 327 322 320 319 315 309 304 299 291 280 270 264 260 256 253 251 251 253 255 255 259 262 266 270 267 264 266 268 269 271 272 271 269 268 269 270 272 274 278 277 275 275 273 266 263 266 265 262 262 264 266 265 261 259 260 260 260 260 260 261 263
322 327 333 339 347 354 357 359 2 8 10 9 6 3 359 356 352 347 340 334 335 336 335 335 336 334 330 327 324 320 320 315 309 307 305 301 295 285 276 272 268 266 265 262 261 260 258 259 261 263 269 276 278 280 278 279 282 282 278 276 274 274 272 271 273 273 271 274 278 276 273 270 266 264 265 265 261 261 264 260 257 258 259 261 262 263 264 263
309 314 318 321 327 334 343 347 347 350 354 356 356 355 352 347 346 347 347 348 348 345 342 340 336 329 322 320 316 313 313 307 304 307 307 306 304 297 288 281 276 275 277 276 272 267 262 261 260 259 261 270 277 283 287 288 288 284 280 281 281 279 277 276 276 272 271 273 273 273 273 271 268 266 269 271 266 261 262 260 257 259 262 264 266 268 269 269
299 304 306 309 313 316 321 324 326 328 329 331 332 336 337 335 335 336 338 341 345 345 345 343 336 328 318 312 308 305 306 304 302 305 304 303 304 300 296 290 284 280 281 282 283 278 271 267 265 263 263 265 269 276 281 280 282 284 284 285 286 284 283 282 279 276 276 273 266 269 268 262 265 269 268 271 272 268 264 263 260 259 261 265 267 268 270 271
291 295 298 301 305 306 307 308 307 309 311 312 313 314 316 319 322 325 326 329 332 333 335 335 332 328 321 315 311 307 306 303 301 301 301 300 298 295 293 292 289 286 284 284 284 283 278 273 270 268 269 269 271 275 276 276 280 284 286 288 288 286 286 283 279 278 278 272 266 268 265 255 259 265 264 266 269 268 266 266 264 260 259 261 263 266 269 271
289 290 291 294 296 297 299 300 301 301 302 303 303 304 305 306 307 310 313 317 321 322 323 325 324 322 320 317 315 313 311 307 303 302 302 300 298 295 292 290 288 285 283 282 283 283 281 278 276 275 275 275 276 277 278 278 280 282 284 287 287 286 284 281 279 278 276 273 270 268 263 255 253 259 262 262 262 262 264 268 269 264 259 258 261 264 268 270
289 289 289 289 289 291 293 295 297 298 299 298 299 299 299 299 300 301 302 304 308 310 311 315 314 313 313 313 313 315 314 309 305 302 299 296 297 299 297 293 289 284 281 280 279 279 279 279 280 280 280 281 281 280 280 280 280 281 283 283 282 282 283 282 281 280 276 276 274 265 258 252 249 254 257 258 259 261 264 267 268 265 261 260 262 264 265 267
286 286 286 286 287 288 289 291 294 295 295 296 296 296 295 295 295 295 295 296 296 296 297 300 302 302 303 303 304 308 309 306 303 301 295 292 294 297 295 292 290 286 284 282 279 278 278 278 279 280 280 281 281 282 282 282 283 284 283 281 279 280 283 285 285 283 281 280 274 264 259 252 249 250 253 257 262 266 268 268 269 269 267 267 267 267 266 266
283 283 284 285 287 287 288 289 291 292 292 292 293 293 292 292 291 290 289 290 290 289 289 290 290 291 293 295 296 298 299 298 301 302 299 296 295 292 290 290 289 288 286 284 282 281 281 280 279 279 279 280 280 281 283 285 287 287 284 281 281 282 283 284 284 285 285 285 279 270 266 258 253 254 257 261 267 270 272 274 275 276 275 272 269 268 267 267
282 282 283 284 285 287 288 288 288 288 290 290 290 289 289 289 288 287 286 286 286 286 286 285 285 285 286 287 288 288 288 291 294 296 296 296 295 293 290 289 288 288 287 284 282 281 282 283 282 282 281 281 281 281 283 286 288 287 283 281 281 282 282 282 283 283 283 284 281 276 272 263 258 260 263 266 269 273 275 276 277 276 273 269 267 268 270 271
284 284 284 283 284 285 286 286 287 287 287 287 288 288 288 287 287 287 286 284 283 283 283 283 284 284 284 283 284 284 286 287 289 290 291 291 292 292 291 290 288 287 286 286 286 283 280 279 280 282 282 282 282 283 284 286 288 285 283 282 281 282 282 281 280 279 279 281 280 278 275 271 269 271 272 273 274 274 274 275 275 274 273 271 270 271 272 273